Flag for Germany Weather past 2 weeks in Erftstadt, North Rhine-Westphalia, Germany

Now
45 °F

Passing clouds.


Feels Like: 38 °F
Forecast: 37 / 46 °F
Wind: 15 mph from Southwest

Location: Noervenich

Current Time: Mar 2, 2015 at 4:43:51 AM

Latest Report: Mar 2, 2015 at 3:20 AM


Visibility: N/A

Pressure: 29.53 "Hg

Humidity: 76%

Dew point: 37 °F

Location of ErftstadtLocation

Historic Weather in Erftstadt — Graph

°F

Erftstadt temperature yesterday

Maximum temperature yesterday: 52 °F (at 11:20 AM)
Minimum temperature yesterday: 41 °F (at 4:20 AM)
Average temperature yesterday: 46 °F

Past Weeks' High & Low Weather Summary

 TemperatureHumidityPressure
High52 °F (Mar 1, 11:20 AM)100% (Feb 17, 6:20 AM)30.74 "Hg (Feb 17, 6:20 AM)
Low27 °F (Feb 19, 7:20 AM)50% (Feb 28, 1:20 PM)29.36 "Hg (Feb 21, 4:20 AM)
Average39 °F80%29.97 "Hg
* Reported Feb 15 2:20 AM — Mar 2 2:20 AM, Erftstadt, Weather by CustomWeather, © 2015

Note: Actual official high and low records may vary slightly from our data, if they occured in-between our weather recording intervals... More about our weather records

Advertising

Erftstadt weather history for previous 24 hours

 ConditionsComfort  
Time TempWeatherWind HumidityBarometerVisibility
2:20 AM
Mon, Mar 2
45 °FPassing clouds.18 mph71%29.50 "HgN/A
1:20 AM46 °FLight rain. Partly cloudy.16 mph87%29.47 "HgN/A
12:20 AM48 °FLight rain. Partly cloudy.9 mph66%29.47 "HgN/A
11:20 PM
Sun, Mar 1
48 °FPassing clouds.7 mph71%29.53 "HgN/A
10:20 PM48 °FPassing clouds.6 mph66%29.56 "HgN/A
9:20 PM46 °FPassing clouds.3 mph71%29.59 "HgN/A
8:20 PM41 °FPassing clouds.3 mph87%29.62 "HgN/A
7:20 PM45 °FPassing clouds.1 mph76%29.62 "HgN/A
6:20 PM48 °FPassing clouds.6 mph66%29.65 "HgN/A
5:20 PM48 °FScattered clouds.14 mph71%29.62 "HgN/A
4:20 PM50 °FScattered clouds.15 mph62%29.62 "HgN/A
3:20 PM46 °FPartly sunny.12 mph82%29.62 "HgN/A
2:20 PM50 °FBroken clouds.14 mph58%29.62 "HgN/A
1:20 PM52 °FBroken clouds.15 mph54%29.65 "HgN/A
12:20 PM50 °FBroken clouds.22 mph58%29.65 "HgN/A
11:20 AM52 °FScattered clouds.20 mph54%29.62 "HgN/A
10:20 AM50 °FBroken clouds.17 mph71%29.62 "HgN/A
9:20 AM48 °FBroken clouds.17 mph76%29.62 "HgN/A
8:20 AM46 °FPartly sunny.5 mph76%29.59 "HgN/A
7:20 AM45 °FPartly sunny.7 mph76%29.59 "HgN/A
6:20 AM45 °FPassing clouds.8 mph76%29.59 "HgN/A
5:20 AM43 °FQuite cool.8 mph81%29.59 "HgN/A
4:20 AM41 °FQuite cool.10 mph81%29.59 "HgN/A
Weather by CustomWeather, © 2015

See weather overviewHow to use our weather pages